Location: Civry
(47.2902°N, 4.6156°E)
Time: 18:08:14
(UTC+00:00)

Meteor 2-12 Rocket - Pass Details

Date: 09 April 2020
Orbit: 935 x 958 km, 82.5° (Epoch: 01 June)

Event Time Altitude Azimuth Distance (km) Brightness Sun altitude
Rises 20:46:30 0° 349° (N) 3,628 8.3 -22.3°
Reaches altitude 10° 20:49:00 10° 349° (NNW) 2,675 7.5 -22.7°
Maximum altitude 20:55:07 80° 263° (W) 960 4.4 -23.4°
Enters shadow 20:57:32 39° 182° (S) 1,381 4.9 -23.7°
